TimeEDT,TemperatureF,Dew PointF,Humidity,Sea Level PressureIn,VisibilityMPH,Wind Direction,Wind SpeedMPH,Gust SpeedMPH,PrecipitationIn,Events,Conditions,WindDirDegrees,DateUTC
1:54 AM,-9999,-9999,N/A,-9999,10.0,SSE,6.9,-,N/A,,Clear,160,2013-05-02 05:54:00
2:54 AM,-9999,-9999,N/A,-9999,10.0,SSE,5.8,-,N/A,,Clear,150,2013-05-02 06:54:00
3:54 AM,-9999,-9999,N/A,-9999,10.0,ESE,5.8,-,N/A,,Clear,110,2013-05-02 07:54:00
4:54 AM,-9999,-9999,N/A,-9999,10.0,ESE,4.6,-,N/A,,Clear,110,2013-05-02 08:54:00
5:54 AM,-9999,-9999,N/A,-9999,10.0,Variable,5.8,-,N/A,,Clear,0,2013-05-02 09:54:00
6:54 AM,-9999,-9999,N/A,-9999,10.0,ESE,5.8,-,N/A,,Clear,120,2013-05-02 10:54:00
7:54 AM,-9999,-9999,N/A,-9999,10.0,ESE,8.1,-,N/A,,Clear,120,2013-05-02 11:54:00
8:54 AM,-9999,-9999,N/A,-9999,10.0,East,9.2,-,N/A,,Clear,100,2013-05-02 12:54:00
9:54 AM,-9999,-9999,N/A,-9999,10.0,ESE,9.2,-,N/A,,Clear,120,2013-05-02 13:54:00
10:54 AM,-9999,-9999,N/A,-9999,10.0,Variable,4.6,-,N/A,,Clear,0,2013-05-02 14:54:00
11:54 AM,-9999,-9999,N/A,-9999,10.0,East,8.1,-,N/A,,Clear,100,2013-05-02 15:54:00
12:54 PM,-9999,-9999,N/A,-9999,10.0,SSE,11.5,17.3,N/A,,Clear,150,2013-05-02 16:54:00
2:54 PM,-9999,-9999,N/A,-9999,10.0,Variable,4.6,-,N/A,,Clear,0,2013-05-02 18:54:00
3:54 PM,-9999,-9999,N/A,-9999,10.0,Variable,6.9,16.1,N/A,,Clear,0,2013-05-02 19:54:00
4:54 PM,-9999,-9999,N/A,-9999,10.0,Variable,4.6,-,0.00,,Clear,0,2013-05-02 20:54:00
5:54 PM,-9999,-9999,N/A,-9999,10.0,Variable,5.8,-,0.00,,Clear,0,2013-05-02 21:54:00
6:54 PM,-9999,-9999,N/A,-9999,10.0,South,8.1,-,N/A,,Clear,170,2013-05-02 22:54:00
7:54 PM,-9999,-9999,N/A,-9999,10.0,SSE,5.8,-,N/A,,Clear,160,2013-05-02 23:54:00
8:54 PM,-9999,-9999,N/A,-9999,10.0,South,4.6,-,N/A,,Clear,170,2013-05-03 00:54:00
9:54 PM,-9999,-9999,N/A,-9999,10.0,South,5.8,-,N/A,,Clear,170,2013-05-03 01:54:00
10:54 PM,-9999,-9999,N/A,-9999,10.0,SSE,5.8,-,N/A,,Clear,160,2013-05-03 02:54:00
11:54 PM,-9999,-9999,N/A,-9999,10.0,South,4.6,-,N/A,,Clear,180,2013-05-03 03:54:00